| time (UTC) | temp F | wind direction | speed knots | gust knots | rain 1hr in | rain 24hr in | rain mn in | humidity % | barometer mb |
| 20260506044550 | 53 | 142 | 0.9 | 1.7 | 0.00 | 0.00 | 0.00 | 95 | 1008.0 |
| 20260506044050 | 53 | 78 | 0.0 | 0.9 | 0.00 | 0.00 | 0.00 | 95 | 1007.8 |
| 20260506043520 | 53 | 79 | 1.7 | 1.7 | 0.00 | 0.00 | 0.00 | 95 | 1007.7 |
| 20260506043020 | 53 | 46 | 1.7 | 2.6 | 0.00 | 0.00 | 0.00 | 95 | 1007.8 |
| 20260506042450 | 53 | 62 | 2.6 | 3.5 | 0.00 | 0.00 | 0.00 | 96 | 1007.6 |
| 20260506041950 | 53 | 58 | 2.6 | 2.6 | 0.00 | 0.00 | 0.00 | 95 | 1007.5 |
| 20260506041450 | 53 | 58 | 0.9 | 1.7 | 0.00 | 0.00 | 0.00 | 96 | 1007.7 |
| 20260506040920 | 53 | 46 | 0.0 | 0.9 | 0.00 | 0.00 | 0.00 | 96 | 1007.3 |
| 20260506040350 | 53 | 65 | 0.0 | 0.9 | 0.00 | 0.00 | 0.00 | 96 | 1007.7 |
| 20260506035850 | 53 | 65 | 0.0 | 0.9 | 0.00 | 0.00 | 0.00 | 96 | 1007.5 |
| 20260506035320 | 53 | 86 | 0.9 | 1.7 | 0.00 | 0.00 | 0.00 | 96 | 1007.9 |
| 20260506034820 | 53 | 122 | 0.9 | 0.9 | 0.00 | 0.00 | 0.00 | 96 | 1008.0 |
| 20260506034250 | 53 | 123 | 0.9 | 0.9 | 0.00 | 0.00 | 0.00 | 96 | 1008.0 |
| 20260506033750 | 53 | 122 | 1.7 | 2.6 | 0.00 | 0.00 | 0.00 | 96 | 1007.9 |
| 20260506033220 | 53 | 168 | 1.7 | 1.7 | 0.00 | 0.00 | 0.00 | 95 | 1008.1 |
| 20260506032650 | 53 | 135 | 0.9 | 0.9 | 0.00 | 0.00 | 0.00 | 95 | 1007.6 |
| 20260506032150 | 53 | 135 | 0.0 | 0.9 | 0.00 | 0.00 | 0.00 | 95 | 1007.6 |
| 20260506031650 | 53 | 129 | 0.9 | 0.9 | 0.00 | 0.00 | 0.00 | 94 | 1007.5 |
| 20260506031121 | 53 | 127 | 0.9 | 1.7 | 0.00 | 0.00 | 0.00 | 94 | 1007.7 |
| 20260506030551 | 53 | 119 | 0.9 | 1.7 | 0.00 | 0.00 | 0.00 | 94 | 1007.5 |
| 20260506030050 | 53 | 121 | 0.9 | 1.7 | 0.00 | 0.00 | 0.00 | 93 | 1007.2 |
| 20260506025521 | 53 | 113 | 0.0 | 0.9 | 0.00 | 0.00 | 0.00 | 93 | 1007.1 |
| 20260506024950 | 53 | 113 | 0.9 | 0.9 | 0.00 | 0.00 | 0.00 | 93 | 1007.3 |
| 20260506024450 | 54 | 112 | 0.0 | 0.9 | 0.00 | 0.00 | 0.00 | 93 | 1007.3 |
| 20260506023950 | 54 | 113 | 0.9 | 0.9 | 0.00 | 0.00 | 0.00 | 93 | 1007.5 |
| 20260506023451 | 54 | 113 | 0.9 | 1.7 | 0.00 | 0.00 | 0.00 | 93 | 1007.1 |
| 20260506022920 | 54 | 113 | 0.0 | 0.9 | 0.00 | 0.00 | 0.00 | 92 | 1007.0 |
| 20260506022420 | 54 | 113 | 0.9 | 1.7 | 0.00 | 0.00 | 0.00 | 92 | 1007.3 |
| 20260506022336 | 55 | 107 | 0.9 | 1.7 | 0.00 | 0.00 | 0.00 | 92 | 1007.3 |
| 20260506021321 | 55 | 121 | 0.9 | 0.9 | 0.00 | 0.00 | 0.00 | 91 | 1007.5 |
| 20260506020751 | 55 | 121 | 0.9 | 0.9 | 0.00 | 0.00 | 0.00 | 91 | 1007.2 |
| 20260506020250 | 56 | 122 | 0.0 | 1.7 | 0.00 | 0.00 | 0.00 | 91 | 1007.2 |
| 20260506015940 | 56 | 129 | 0.9 | 1.7 | 0.00 | 0.00 | 0.00 | 91 | 1007.3 |
| 20260506015220 | 56 | 119 | 0.9 | 1.7 | 0.00 | 0.00 | 0.00 | 90 | 1007.2 |
| 20260506014650 | 56 | 118 | 0.9 | 1.7 | 0.00 | 0.00 | 0.00 | 90 | 1007.0 |
| 20260506014150 | 56 | 117 | 0.0 | 0.9 | 0.00 | 0.00 | 0.00 | 90 | 1007.4 |
| 20260506013620 | 57 | 117 | 0.0 | 0.9 | 0.00 | 0.00 | 0.00 | 90 | 1007.3 |
| 20260506013050 | 57 | 117 | 0.0 | 0.9 | 0.00 | 0.00 | 0.00 | 90 | 1007.4 |
| 20260506012520 | 57 | 118 | 0.9 | 0.9 | 0.00 | 0.00 | 0.00 | 90 | 1007.2 |
| 20260506012020 | 57 | 114 | 0.9 | 1.7 | 0.00 | 0.00 | 0.00 | 90 | 1007.3 |
| 20260506011450 | 57 | 299 | 0.0 | 0.9 | 0.00 | 0.00 | 0.00 | 89 | 1007.4 |
| 20260506010921 | 57 | 300 | 0.0 | 0.9 | 0.00 | 0.00 | 0.00 | 88 | 1007.4 |
| 20260506010420 | 57 | 300 | 0.0 | 0.0 | 0.00 | 0.00 | 0.00 | 87 | 1007.4 |
| 20260506005920 | 58 | 300 | 0.0 | 0.9 | 0.00 | 0.00 | 0.00 | 85 | 1007.4 |
| 20260506005420 | 58 | 300 | 0.0 | 0.9 | 0.00 | 0.00 | 0.00 | 85 | 1007.6 |
| 20260506004850 | 58 | 300 | 0.0 | 0.9 | 0.00 | 0.00 | 0.00 | 85 | 1007.4 |
| 20260506004320 | 58 | 300 | 0.0 | 0.9 | 0.00 | 0.00 | 0.00 | 85 | 1007.3 |
| 20260506003820 | 58 | 299 | 0.9 | 1.7 | 0.00 | 0.00 | 0.00 | 84 | 1007.4 |
| 20260506003320 | 58 | 301 | 0.0 | 0.9 | 0.00 | 0.00 | 0.00 | 84 | 1007.4 |
| 20260506002750 | 58 | 306 | 0.0 | 0.9 | 0.00 | 0.00 | 0.00 | 84 | 1007.6 |
| 20260506002511 | 58 | 223 | 0.0 | 1.7 | 0.00 | 0.00 | 0.00 | 83 | 1007.3 |
| 20260506001939 | 59 | 228 | 0.9 | 5.2 | 0.00 | 0.00 | 0.00 | 82 | 1007.6 |
| 20260506001151 | 59 | 200 | 0.9 | 3.5 | 0.00 | 0.00 | 0.00 | 81 | 1007.6 |
| 20260506000650 | 59 | 229 | 0.9 | 3.5 | 0.00 | 0.00 | 0.00 | 80 | 1007.5 |
| 20260506000151 | 59 | 215 | 4.3 | 6.1 | 0.00 | 0.00 | 0.00 | 81 | 1007.7 |
| 20260505235650 | 59 | 254 | 3.5 | 7.0 | 0.00 | 0.00 | 0.00 | 80 | 1007.6 |
| 20260505235606 | 59 | 249 | 1.7 | 3.5 | 0.00 | 0.00 | 0.00 | 81 | 1007.7 |
| 20260505234620 | 59 | 260 | 2.6 | 3.5 | 0.00 | 0.00 | 0.00 | 81 | 1007.7 |
| 20260505234050 | 59 | 261 | 6.1 | 7.8 | 0.00 | 0.00 | 0.00 | 82 | 1007.8 |
| 20260505233740 | 59 | 244 | 3.5 | 6.1 | 0.00 | 0.00 | 0.00 | 81 | 1007.8 |
| 20260505233020 | 59 | 287 | 2.6 | 7.0 | 0.00 | 0.00 | 0.00 | 81 | 1007.6 |
| 20260505232710 | 59 | 255 | 5.2 | 8.7 | 0.00 | 0.00 | 0.00 | 81 | 1007.6 |
| 20260505231920 | 59 | 257 | 2.6 | 7.0 | 0.00 | 0.00 | 0.00 | 82 | 1007.5 |
| 20260505231420 | 59 | 265 | 3.5 | 6.1 | 0.00 | 0.00 | 0.00 | 81 | 1007.7 |
| 20260505231111 | 59 | 290 | 2.6 | 6.1 | 0.00 | 0.00 | 0.00 | 82 | 1007.7 |
| 20260505230321 | 59 | 248 | 2.6 | 7.0 | 0.00 | 0.00 | 0.00 | 82 | 1007.6 |
| 20260505225821 | 59 | 273 | 0.9 | 5.2 | 0.00 | 0.00 | 0.00 | 82 | 1007.5 |
| 20260505225251 | 59 | 309 | 1.7 | 6.1 | 0.00 | 0.00 | 0.00 | 82 | 1007.4 |
| 20260505224721 | 59 | 278 | 2.6 | 6.1 | 0.00 | 0.00 | 0.00 | 81 | 1007.6 |
| 20260505224411 | 59 | 270 | 4.3 | 7.8 | 0.00 | 0.00 | 0.00 | 81 | 1007.4 |
| 20260505223651 | 59 | 243 | 2.6 | 7.8 | 0.00 | 0.00 | 0.00 | 81 | 1007.3 |
| 20260505223121 | 59 | 252 | 7.0 | 9.6 | 0.00 | 0.00 | 0.00 | 81 | 1007.4 |
| 20260505222621 | 59 | 281 | 8.7 | 13.0 | 0.00 | 0.00 | 0.00 | 81 | 1007.4 |
| 20260505222121 | 59 | 257 | 3.5 | 8.7 | 0.00 | 0.00 | 0.00 | 81 | 1007.2 |
| 20260505221621 | 59 | 322 | 6.1 | 8.7 | 0.00 | 0.00 | 0.00 | 81 | 1007.4 |
| 20260505221340 | 60 | 256 | 7.0 | 9.6 | 0.00 | 0.00 | 0.00 | 80 | 1007.3 |
| 20260505220620 | 60 | 273 | 3.5 | 11.3 | 0.00 | 0.00 | 0.00 | 80 | 1007.2 |
| 20260505220051 | 60 | 252 | 3.5 | 7.0 | 0.00 | 0.00 | 0.00 | 80 | 1007.1 |
| 20260505215521 | 60 | 263 | 3.5 | 11.3 | 0.00 | 0.00 | 0.00 | 80 | 1006.9 |
| 20260505215021 | 60 | 299 | 3.5 | 8.7 | 0.00 | 0.00 | 0.00 | 79 | 1006.9 |
| 20260505214451 | 60 | 274 | 2.6 | 7.0 | 0.00 | 0.00 | 0.00 | 80 | 1006.9 |
| 20260505213921 | 60 | 293 | 5.2 | 9.6 | 0.00 | 0.00 | 0.00 | 79 | 1006.7 |
| 20260505213612 | 60 | 254 | 3.5 | 5.2 | 0.00 | 0.00 | 0.00 | 79 | 1006.9 |
| 20260505212851 | 60 | 294 | 0.9 | 6.1 | 0.00 | 0.00 | 0.00 | 79 | 1006.4 |
| 20260505212321 | 60 | 251 | 0.9 | 7.0 | 0.00 | 0.00 | 0.00 | 79 | 1006.2 |
| 20260505211821 | 60 | 247 | 0.0 | 7.8 | 0.00 | 0.00 | 0.00 | 79 | 1006.3 |
| 20260505211251 | 60 | 279 | 2.6 | 6.1 | 0.00 | 0.00 | 0.00 | 78 | 1006.2 |
| 20260505210721 | 61 | 280 | 3.5 | 5.2 | 0.00 | 0.00 | 0.00 | 78 | 1006.3 |
| 20260505210441 | 61 | 311 | 2.6 | 13.9 | 0.00 | 0.00 | 0.00 | 78 | 1006.2 |
| 20260505205650 | 61 | 309 | 1.7 | 2.6 | 0.00 | 0.00 | 0.00 | 78 | 1006.2 |
| 20260505205121 | 61 | 309 | 2.6 | 3.5 | 0.00 | 0.00 | 0.00 | 77 | 1006.1 |
| 20260505204621 | 61 | 287 | 3.5 | 5.2 | 0.00 | 0.00 | 0.00 | 77 | 1005.9 |
| 20260505204051 | 61 | 301 | 2.6 | 5.2 | 0.00 | 0.00 | 0.00 | 77 | 1005.9 |
| 20260505203521 | 61 | 285 | 2.6 | 5.2 | 0.00 | 0.00 | 0.00 | 76 | 1005.8 |
| 20260505202950 | 62 | 319 | 6.1 | 8.7 | 0.00 | 0.00 | 0.00 | 74 | 1005.9 |
| 20260505202451 | 62 | 295 | 5.2 | 7.0 | 0.00 | 0.00 | 0.00 | 73 | 1005.9 |
| 20260505201921 | 62 | 313 | 1.7 | 2.6 | 0.00 | 0.00 | 0.00 | 73 | 1005.7 |
| 20260505201420 | 62 | 276 | 2.6 | 3.5 | 0.00 | 0.00 | 0.00 | 73 | 1005.5 |
| 20260505200920 | 62 | 286 | 0.9 | 5.2 | 0.00 | 0.00 | 0.00 | 74 | 1005.3 |
| 20260505200420 | 62 | 277 | 2.6 | 3.5 | 0.00 | 0.00 | 0.00 | 74 | 1005.3 |
| 20260505195851 | 62 | 318 | 2.6 | 5.2 | 0.00 | 0.00 | 0.00 | 74 | 1005.2 |
| 20260505195351 | 62 | 312 | 1.7 | 5.2 | 0.00 | 0.00 | 0.00 | 73 | 1005.1 |
| 20260505194851 | 62 | 275 | 1.7 | 3.5 | 0.00 | 0.00 | 0.00 | 73 | 1005.0 |
| 20260505194542 | 62 | 254 | 2.6 | 3.5 | 0.00 | 0.00 | 0.00 | 74 | 1005.3 |
| 20260505193821 | 62 | 307 | 1.7 | 3.5 | 0.00 | 0.00 | 0.00 | 75 | 1005.0 |
| 20260505193251 | 62 | 258 | 0.9 | 5.2 | 0.00 | 0.00 | 0.00 | 76 | 1004.8 |
| 20260505192751 | 61 | 264 | 1.7 | 5.2 | 0.00 | 0.00 | 0.00 | 77 | 1004.8 |
| 20260505192251 | 61 | 311 | 1.7 | 3.5 | 0.00 | 0.00 | 0.00 | 77 | 1004.2 |
| 20260505192010 | 61 | 329 | 2.6 | 3.5 | 0.00 | 0.00 | 0.00 | 78 | 1004.3 |
| 20260505191221 | 61 | 6 | 3.5 | 5.2 | 0.00 | 0.00 | 0.00 | 79 | 1004.2 |
| 20260505190720 | 62 | 21 | 3.5 | 5.2 | 0.00 | 0.00 | 0.00 | 79 | 1004.3 |
| 20260505190151 | 62 | 9 | 0.9 | 1.7 | 0.00 | 0.00 | 0.00 | 78 | 1004.4 |
| 20260505185651 | 62 | 24 | 1.7 | 2.6 | 0.00 | 0.00 | 0.00 | 79 | 1004.2 |
| 20260505185341 | 62 | 11 | 1.7 | 2.6 | 0.00 | 0.00 | 0.00 | 79 | 1004.3 |
| 20260505184551 | 62 | 324 | 1.7 | 3.5 | 0.00 | 0.00 | 0.00 | 78 | 1004.3 |
| 20260505184051 | 62 | 2 | 2.6 | 6.1 | 0.00 | 0.00 | 0.00 | 77 | 1004.2 |
| 20260505183521 | 63 | 4 | 4.3 | 7.0 | 0.00 | 0.00 | 0.00 | 77 | 1004.3 |
| 20260505182951 | 64 | 327 | 4.3 | 9.6 | 0.00 | 0.00 | 0.00 | 73 | 1004.5 |
| 20260505182712 | 64 | 328 | 3.5 | 7.8 | 0.00 | 0.00 | 0.00 | 70 | 1004.3 |
| 20260505181921 | 64 | 301 | 7.0 | 13.0 | 0.00 | 0.00 | 0.00 | 69 | 1004.7 |
| 20260505181421 | 65 | 344 | 1.7 | 13.9 | 0.00 | 0.00 | 0.00 | 67 | 1004.6 |
| 20260505180851 | 65 | 296 | 5.2 | 12.2 | 0.00 | 0.00 | 0.00 | 65 | 1004.2 |
| 20260505180321 | 66 | 321 | 7.8 | 18.2 | 0.00 | 0.00 | 0.00 | 63 | 1004.4 |
| 20260505175821 | 66 | 231 | 7.0 | 15.6 | 0.00 | 0.00 | 0.00 | 62 | 1004.2 |
| 20260505175251 | 67 | 255 | 15.6 | 26.9 | 0.00 | 0.00 | 0.00 | 60 | 1004.0 |
| 20260505174721 | 67 | 266 | 12.2 | 18.2 | 0.00 | 0.00 | 0.00 | 57 | 1004.0 |
| 20260505174221 | 67 | 248 | 10.4 | 13.0 | 0.00 | 0.00 | 0.00 | 55 | 1004.1 |
| 20260505173910 | 68 | 329 | 8.7 | 13.9 | 0.00 | 0.00 | 0.00 | 55 | 1003.6 |
| 20260505173121 | 68 | 289 | 7.0 | 15.6 | 0.00 | 0.00 | 0.00 | 55 | 1003.6 |
| 20260505172551 | 68 | 278 | 12.2 | 18.2 | 0.00 | 0.00 | 0.00 | 55 | 1003.7 |
| 20260505172051 | 68 | 312 | 7.8 | 14.8 | 0.00 | 0.00 | 0.00 | 54 | 1003.6 |
| 20260505171551 | 69 | 299 | 15.6 | 23.5 | 0.00 | 0.00 | 0.00 | 54 | 1003.3 |
| 20260505171312 | 70 | 262 | 15.6 | 27.8 | 0.00 | 0.00 | 0.00 | 53 | 1003.5 |
| 20260505170551 | 71 | 272 | 13.9 | 19.1 | 0.00 | 0.00 | 0.00 | 51 | 1003.3 |
| 20260505170050 | 73 | 222 | 9.6 | 13.9 | 0.00 | 0.00 | 0.00 | 47 | 1003.0 |
| 20260505165521 | 76 | 259 | 6.1 | 13.0 | 0.00 | 0.00 | 0.00 | 35 | 1002.6 |
| 20260505165020 | 76 | 217 | 4.3 | 13.9 | 0.00 | 0.00 | 0.00 | 35 | 1002.5 |
| 20260505164451 | 76 | 182 | 2.6 | 11.3 | 0.00 | 0.00 | 0.00 | 35 | 1002.4 |
| 20260505164141 | 77 | 221 | 2.6 | 3.5 | 0.00 | 0.00 | 0.00 | 36 | 1002.2 |
| 20260505163420 | 77 | 249 | 0.9 | 5.2 | 0.00 | 0.00 | 0.00 | 37 | 1002.6 |
| 20260505162851 | 77 | 252 | 4.3 | 7.0 | 0.00 | 0.00 | 0.00 | 37 | 1002.5 |
| 20260505162350 | 77 | 257 | 0.9 | 2.6 | 0.00 | 0.00 | 0.00 | 37 | 1002.5 |
| 20260505161851 | 77 | 213 | 0.9 | 1.7 | 0.00 | 0.00 | 0.00 | 37 | 1002.7 |
| 20260505161612 | 77 | 236 | 0.9 | 2.6 | 0.00 | 0.00 | 0.00 | 37 | 1002.7 |
| 20260505160821 | 77 | 220 | 2.6 | 5.2 | 0.00 | 0.00 | 0.00 | 36 | 1002.8 |
| 20260505160321 | 77 | 185 | 2.6 | 2.6 | 0.00 | 0.00 | 0.00 | 37 | 1002.8 |
| 20260505153121 | 79 | 174 | 1.7 | 3.5 | 0.00 | 0.00 | 0.00 | 35 | 1002.6 |
| 20260505152621 | 79 | 188 | 1.7 | 3.5 | 0.00 | 0.00 | 0.00 | 35 | 1002.9 |
| 20260505152051 | 80 | 178 | 1.7 | 3.5 | 0.00 | 0.00 | 0.00 | 35 | 1002.8 |
| 20260505151812 | 80 | 182 | 0.9 | 6.1 | 0.00 | 0.00 | 0.00 | 35 | 1002.8 |
| 20260505151051 | 79 | 210 | 2.6 | 3.5 | 0.00 | 0.00 | 0.00 | 34 | 1003.1 |
| 20260505150521 | 79 | 218 | 1.7 | 5.2 | 0.00 | 0.00 | 0.00 | 34 | 1003.2 |
| 20260505140251 | 79 | 9 | 1.7 | 5.2 | 0.00 | 0.00 | 0.00 | 35 | 1003.9 |
| 20260505125020 | 80 | 183 | 0.9 | 2.6 | 0.00 | 0.00 | 0.00 | 32 | 1004.8 |
| 20260505124450 | 80 | 171 | 2.6 | 5.2 | 0.00 | 0.00 | 0.00 | 36 | 1004.6 |
| 20260505124140 | 80 | 261 | 0.9 | 1.7 | 0.00 | 0.00 | 0.00 | 34 | 1004.7 |
| 20260505123420 | 80 | 26 | 1.7 | 3.5 | 0.00 | 0.00 | 0.00 | 35 | 1004.7 |
| 20260505122850 | 79 | 256 | 0.0 | 2.6 | 0.00 | 0.00 | 0.00 | 35 | 1005.0 |
| 20260505122350 | 79 | 160 | 4.3 | 6.1 | 0.00 | 0.00 | 0.00 | 37 | 1005.1 |
| 20260505121850 | 78 | 123 | 7.0 | 8.7 | 0.00 | 0.00 | 0.00 | 40 | 1004.9 |
| 20260505121541 | 78 | 49 | 0.0 | 1.7 | 0.00 | 0.00 | 0.00 | 39 | 1004.9 |
| 20260505120751 | 78 | 69 | 2.6 | 3.5 | 0.00 | 0.00 | 0.00 | 42 | 1005.3 |
| 20260505120251 | 78 | 223 | 2.6 | 6.1 | 0.00 | 0.00 | 0.00 | 41 | 1005.4 |
| 20260505115721 | 78 | 178 | 3.5 | 5.2 | 0.00 | 0.00 | 0.00 | 43 | 1005.4 |
| 20260505115221 | 78 | 228 | 0.0 | 2.6 | 0.00 | 0.00 | 0.00 | 42 | 1005.5 |
| 20260505114910 | 78 | 158 | 1.7 | 3.5 | 0.00 | 0.00 | 0.00 | 41 | 1005.6 |
| 20260505114606 | 78 | 204 | 1.7 | 5.2 | 0.00 | 0.00 | 0.00 | 44 | 1005.6 |
| 20260505113550 | 78 | 24 | 1.7 | 1.7 | 0.00 | 0.00 | 0.00 | 41 | 1005.6 |
| 20260505113051 | 79 | 75 | 1.7 | 3.5 | 0.00 | 0.00 | 0.00 | 42 | 1005.8 |
| 20260505112521 | 78 | 170 | 2.6 | 3.5 | 0.00 | 0.00 | 0.00 | 46 | 1006.0 |
| 20260505112020 | 78 | 153 | 5.2 | 7.0 | 0.00 | 0.00 | 0.00 | 45 | 1005.8 |
| 20260505111711 | 78 | 146 | 4.3 | 7.8 | 0.00 | 0.00 | 0.00 | 43 | 1005.9 |
| 20260505110950 | 76 | 161 | 2.6 | 3.5 | 0.00 | 0.00 | 0.00 | 44 | 1006.2 |
| 20260505110421 | 76 | 158 | 3.5 | 7.0 | 0.00 | 0.00 | 0.00 | 46 | 1006.1 |
| 20260505102220 | 75 | 267 | 1.7 | 3.5 | 0.00 | 0.00 | 0.00 | 47 | 1006.6 |
| 20260505101650 | 75 | 304 | 2.6 | 2.6 | 0.00 | 0.00 | 0.00 | 49 | 1006.9 |
| 20260505101342 | 74 | 37 | 0.9 | 2.6 | 0.00 | 0.00 | 0.00 | 50 | 1006.8 |
| 20260505100551 | 73 | 169 | 0.9 | 3.5 | 0.00 | 0.00 | 0.00 | 50 | 1007.0 |
| 20260505100051 | 73 | 283 | 2.6 | 5.2 | 0.00 | 0.00 | 0.00 | 50 | 1007.0 |
| 20260505095521 | 73 | 260 | 1.7 | 3.5 | 0.00 | 0.00 | 0.00 | 51 | 1006.9 |
| 20260505095021 | 74 | 181 | 0.9 | 7.0 | 0.00 | 0.00 | 0.00 | 49 | 1007.1 |
| 20260505094451 | 74 | 61 | 0.0 | 5.2 | 0.00 | 0.00 | 0.00 | 49 | 1007.3 |
| 20260505093921 | 73 | 140 | 2.6 | 6.1 | 0.00 | 0.00 | 0.00 | 50 | 1007.1 |
| 20260505093421 | 72 | 167 | 1.7 | 2.6 | 0.00 | 0.00 | 0.00 | 51 | 1007.4 |
| 20260505092851 | 72 | 174 | 2.6 | 3.5 | 0.00 | 0.00 | 0.00 | 53 | 1007.3 |
| 20260505092351 | 72 | 42 | 1.7 | 1.7 | 0.00 | 0.00 | 0.00 | 50 | 1007.5 |
| 20260505091851 | 73 | 164 | 2.6 | 3.5 | 0.00 | 0.00 | 0.00 | 50 | 1007.4 |
| 20260505091611 | 72 | 165 | 1.7 | 3.5 | 0.00 | 0.00 | 0.00 | 53 | 1007.3 |
| 20260505090851 | 72 | 155 | 0.0 | 1.7 | 0.00 | 0.00 | 0.00 | 50 | 1007.7 |
| 20260505090350 | 72 | 69 | 2.6 | 6.1 | 0.00 | 0.00 | 0.00 | 52 | 1007.6 |
| 20260505085851 | 71 | 146 | 0.9 | 1.7 | 0.00 | 0.00 | 0.00 | 54 | 1007.7 |
| 20260505085350 | 72 | 178 | 1.7 | 2.6 | 0.00 | 0.00 | 0.00 | 53 | 1007.7 |
| 20260505085110 | 71 | 97 | 1.7 | 2.6 | 0.00 | 0.00 | 0.00 | 55 | 1007.7 |
| 20260505084320 | 70 | 161 | 0.9 | 5.2 | 0.00 | 0.00 | 0.00 | 54 | 1007.6 |
| 20260505084041 | 69 | 211 | 1.7 | 2.6 | 0.00 | 0.00 | 0.00 | 55 | 1007.7 |
| 20260505083250 | 70 | 202 | 0.9 | 2.6 | 0.00 | 0.00 | 0.00 | 55 | 1007.7 |
| 20260505082720 | 70 | 252 | 2.6 | 2.6 | 0.00 | 0.00 | 0.00 | 55 | 1007.5 |
| 20260505082220 | 69 | 127 | 1.7 | 2.6 | 0.00 | 0.00 | 0.00 | 55 | 1007.9 |
| 20260505081942 | 69 | 179 | 0.9 | 1.7 | 0.00 | 0.00 | 0.00 | 56 | 1007.8 |
| 20260505081150 | 68 | 189 | 0.0 | 3.5 | 0.00 | 0.00 | 0.00 | 57 | 1007.7 |
| 20260505080651 | 68 | 155 | 0.9 | 1.7 | 0.00 | 0.00 | 0.00 | 56 | 1007.9 |
| 20260505080150 | 67 | 119 | 0.9 | 3.5 | 0.00 | 0.00 | 0.00 | 59 | 1007.9 |
| 20260505075620 | 67 | 226 | 0.9 | 2.6 | 0.00 | 0.00 | 0.00 | 58 | 1007.9 |
| 20260505075310 | 67 | 300 | 0.0 | 1.7 | 0.00 | 0.00 | 0.00 | 59 | 1008.0 |
| 20260505074550 | 66 | 226 | 0.9 | 1.7 | 0.00 | 0.00 | 0.00 | 60 | 1008.1 |
| 20260505074050 | 66 | 171 | 1.7 | 2.6 | 0.00 | 0.00 | 0.00 | 59 | 1008.0 |
| 20260505073520 | 67 | 181 | 0.9 | 3.5 | 0.00 | 0.00 | 0.00 | 58 | 1008.0 |
| 20260505073211 | 67 | 167 | 0.9 | 2.6 | 0.00 | 0.00 | 0.00 | 61 | 1008.2 |
| 20260505072450 | 66 | 134 | 2.6 | 3.5 | 0.00 | 0.00 | 0.00 | 59 | 1008.2 |
| 20260505071950 | 66 | 175 | 1.7 | 2.6 | 0.00 | 0.00 | 0.00 | 62 | 1008.2 |
| 20260505071450 | 65 | 156 | 0.9 | 3.5 | 0.00 | 0.00 | 0.00 | 62 | 1008.2 |
| 20260505070921 | 65 | 167 | 1.7 | 2.6 | 0.00 | 0.00 | 0.00 | 62 | 1008.3 |
| 20260505070641 | 65 | 163 | 1.7 | 2.6 | 0.00 | 0.00 | 0.00 | 62 | 1008.2 |
| 20260505065851 | 64 | 162 | 1.7 | 1.7 | 0.00 | 0.00 | 0.00 | 65 | 1008.1 |
| 20260505065351 | 63 | 136 | 2.6 | 3.5 | 0.00 | 0.00 | 0.00 | 66 | 1008.4 |
| 20260505064851 | 63 | 164 | 1.7 | 6.1 | 0.00 | 0.00 | 0.00 | 66 | 1008.5 |
| 20260505064321 | 63 | 186 | 0.9 | 1.7 | 0.00 | 0.00 | 0.00 | 66 | 1008.4 |
| 20260505063751 | 63 | 188 | 1.7 | 3.5 | 0.00 | 0.00 | 0.00 | 66 | 1008.4 |
| 20260505063221 | 63 | 174 | 1.7 | 2.6 | 0.00 | 0.00 | 0.00 | 67 | 1008.4 |
| 20260505062651 | 62 | 168 | 1.7 | 1.7 | 0.00 | 0.00 | 0.00 | 67 | 1008.4 |
| 20260505062121 | 61 | 192 | 1.7 | 5.2 | 0.00 | 0.00 | 0.00 | 68 | 1008.4 |
| 20260505061621 | 61 | 161 | 2.6 | 3.5 | 0.00 | 0.00 | 0.00 | 68 | 1008.3 |
| 20260505061340 | 61 | 150 | 1.7 | 2.6 | 0.00 | 0.00 | 0.00 | 69 | 1008.5 |
| 20260505060620 | 61 | 187 | 2.6 | 3.5 | 0.00 | 0.00 | 0.00 | 68 | 1008.5 |
| 20260505060051 | 61 | 137 | 1.7 | 5.2 | 0.00 | 0.00 | 0.00 | 68 | 1008.5 |
| 20260505055521 | 61 | 178 | 0.9 | 5.2 | 0.00 | 0.00 | 0.00 | 67 | 1008.5 |
| 20260505054951 | 61 | 158 | 1.7 | 3.5 | 0.00 | 0.00 | 0.00 | 67 | 1008.4 |
| 20260505054711 | 61 | 169 | 1.7 | 6.1 | 0.00 | 0.00 | 0.00 | 68 | 1008.3 |
| 20260505053921 | 60 | 140 | 2.6 | 3.5 | 0.00 | 0.00 | 0.00 | 69 | 1008.4 |
| 20260505053421 | 60 | 181 | 3.5 | 3.5 | 0.00 | 0.00 | 0.00 | 71 | 1008.4 |
| 20260505052921 | 59 | 187 | 1.7 | 2.6 | 0.00 | 0.00 | 0.00 | 71 | 1008.3 |
| 20260505052421 | 59 | 142 | 1.7 | 3.5 | 0.00 | 0.00 | 0.00 | 72 | 1008.4 |
| 20260505051851 | 58 | 146 | 1.7 | 3.5 | 0.00 | 0.00 | 0.00 | 73 | 1008.1 |
| 20260505051351 | 58 | 126 | 1.7 | 1.7 | 0.00 | 0.00 | 0.00 | 74 | 1008.4 |
| 20260505051110 | 57 | 124 | 1.7 | 2.6 | 0.00 | 0.00 | 0.00 | 75 | 1008.1 |
| 20260505050321 | 56 | 134 | 1.7 | 2.6 | 0.00 | 0.00 | 0.00 | 76 | 1008.2 |